PBO Station Position Time Series. Reference Frame : NAM14
Format Version,1.1.0
4-character ID,P083
Station name,NeedlePeakNV2007
Begin Date, 2007-04-13
End Date, 2019-10-07
Release Date, 2019-10-08
Reference position, 40.3205812297 North Latitude, -117.4676372760 East Longitude, 1642.68091 meters elevation,
Date, North (mm), East (mm), Vertical (mm), North Std. Deviation (mm), East Std. Deviation (mm),              Vertical Std. Deviation (mm), Quality,
2007-04-13,0.00, 0.00, 0.00, 2.01, 1.57, 6.98, repro,
2007-04-14,0.45, -0.99, 1.76, 2.05, 1.60, 7.08, repro,
2007-04-15,0.38, -1.40, -4.19, 2.02, 1.59, 7.05, repro,
2007-04-16,-0.53, -0.37, -0.36, 2.01, 1.58, 7.01, repro,
2007-04-17,1.29, -1.03, 2.25, 2.00, 1.58, 6.98, repro,
2007-04-18,2.25, -5.35, -0.07, 2.02, 1.58, 7.01, repro,
2007-04-19,1.60, -0.61, -1.76, 2.02, 1.60, 7.08, repro,
2007-04-20,0.28, 0.79, 4.98, 2.03, 1.58, 7.07, repro,
2007-04-21,0.25, -0.56, 1.93, 2.02, 1.58, 7.03, repro,
2007-04-22,-0.24, -2.47, -2.59, 2.01, 1.57, 6.99, repro,
2007-04-23,0.89, -0.08, -1.42, 2.04, 1.60, 7.04, repro,
2007-04-24,1.03, 0.73, -4.12, 2.06, 1.62, 7.20, repro,
2007-04-25,0.60, 0.16, 1.48, 2.05, 1.61, 7.13, repro,
2007-04-26,-0.29, 0.39, 1.64, 2.02, 1.57, 7.00, repro,
2007-04-27,0.65, 0.07, 0.24, 2.02, 1.57, 7.01, repro,
2007-04-28,-0.73, 0.78, -4.05, 2.03, 1.57, 7.04, repro,
2007-04-29,-0.40, -0.63, -4.75, 2.03, 1.57, 7.03, repro,
2007-04-30,0.38, -0.02, -6.65, 2.04, 1.57, 7.07, repro,
2007-05-01,0.63, 0.51, -0.35, 2.03, 1.57, 7.03, repro,
2007-05-02,-0.93, 1.50, 6.00, 2.09, 1.59, 7.26, repro,
2007-05-03,2.00, -1.70, -11.47, 2.15, 1.62, 7.38, repro,
2007-05-04,0.30, -1.06, 0.24, 2.02, 1.56, 7.00, repro,
2007-05-05,-2.30, 1.45, 10.44, 2.08, 1.61, 7.21, repro,
2007-05-06,-0.34, 0.36, -1.76, 2.05, 1.56, 7.04, repro,
2007-05-07,-0.95, 0.37, -0.06, 2.03, 1.57, 7.07, repro,
2007-05-08,-0.69, -0.40, -4.43, 2.03, 1.57, 7.03, repro,
2007-05-09,0.30, 1.05, -3.00, 2.03, 1.57, 7.02, repro,
2007-05-10,0.53, 0.32, -3.63, 2.16, 1.64, 7.51, repro,
2007-05-11,0.50, 1.11, -3.43, 2.14, 1.64, 7.42, repro,
2007-05-12,0.69, 1.11, 0.18, 2.03, 1.56, 7.01, repro,
2007-05-13,0.20, 0.43, 5.14, 2.08, 1.60, 7.14, repro,
2007-05-14,0.02, 0.30, -3.64, 2.07, 1.60, 7.14, repro,
2007-05-15,0.65, 1.02, -5.12, 2.06, 1.58, 7.08, repro,
2007-05-16,0.36, 0.83, -2.55, 2.05, 1.57, 7.04, repro,
2007-05-17,1.17, 0.14, 2.68, 2.06, 1.60, 7.12, repro,
2007-05-18,0.61, 0.03, -0.66, 2.11, 1.65, 7.31, repro,
2007-05-19,0.80, -0.96, -2.54, 2.08, 1.61, 7.13, repro,
2007-05-20,1.27, -1.53, -1.53, 2.12, 1.64, 7.26, repro,
2007-05-21,1.34, -3.37, -4.87, 2.10, 1.61, 7.19, repro,
2007-05-22,0.73, -1.33, 3.60, 2.07, 1.60, 7.10, repro,
2007-05-23,0.50, 0.66, 2.50, 2.10, 1.64, 7.23, repro,
2007-05-24,-0.47, -0.08, 2.55, 2.11, 1.64, 7.24, repro,
2007-05-25,-0.31, -0.13, 1.79, 2.09, 1.62, 7.17, repro,
2007-05-26,0.35, 0.09, -3.33, 2.10, 1.63, 7.24, repro,
2007-05-27,0.26, -1.44, 0.27, 2.08, 1.58, 7.05, repro,
2007-05-28,0.46, -1.17, 4.41, 2.06, 1.57, 7.00, repro,
2007-05-29,-0.04, 0.49, 2.80, 2.03, 1.57, 6.93, repro,
2007-05-30,0.16, 0.62, -0.89, 2.10, 1.59, 7.11, repro,
2007-05-31,-0.05, 0.87, 1.66, 2.10, 1.62, 7.21, repro,
2007-06-01,0.50, -0.32, -1.57, 2.08, 1.59, 7.12, repro,
2007-06-02,0.19, 0.65, 6.70, 2.04, 1.58, 7.02, repro,
2007-06-03,0.31, -0.63, 4.92, 2.04, 1.58, 7.00, repro,
2007-06-04,-0.27, 0.46, 4.39, 2.03, 1.59, 7.02, repro,
2007-06-05,0.18, 1.39, 1.24, 2.08, 1.59, 7.15, repro,
2007-06-06,1.52, -2.12, -0.99, 2.04, 1.57, 6.99, repro,
2007-06-07,0.63, -2.73, 1.33, 2.06, 1.58, 7.08, repro,
2007-06-08,0.29, 0.00, -0.05, 2.04, 1.57, 7.02, repro,
2007-06-09,0.29, 0.34, 3.83, 2.06, 1.62, 7.15, repro,
2007-06-10,0.83, 0.64, -2.98, 2.04, 1.59, 7.07, repro,
2007-06-11,-1.43, 1.46, 4.49, 2.07, 1.67, 7.23, repro,
2007-06-12,-0.12, 0.26, 3.38, 2.09, 1.67, 7.28, repro,
2007-06-13,0.65, -0.68, -2.08, 2.08, 1.62, 7.18, repro,
2007-06-14,0.57, 0.27, -0.45, 2.08, 1.64, 7.19, repro,
2007-06-15,1.75, -0.05, 3.22, 2.05, 1.60, 7.13, repro,
2007-06-16,-1.09, -2.00, 5.47, 2.03, 1.59, 7.02, repro,
2007-06-17,0.69, 2.69, -3.58, 2.02, 1.57, 6.96, repro,
2007-06-18,0.45, 1.33, 5.57, 2.04, 1.58, 7.03, repro,
2007-06-19,-0.71, 0.67, 0.35, 2.04, 1.59, 7.06, repro,
2007-06-20,0.28, 0.27, -2.82, 2.04, 1.58, 7.04, repro,
2007-06-21,0.39, 1.02, 0.43, 2.03, 1.58, 7.00, repro,
2007-06-22,0.66, 0.95, 1.75, 2.01, 1.58, 6.97, repro,
2007-06-23,-0.13, 1.49, -2.92, 2.03, 1.57, 6.98, repro,
2007-06-24,1.45, 0.93, -5.57, 2.07, 1.61, 7.27, repro,
2007-06-25,1.83, 1.08, -7.87, 2.06, 1.58, 7.11, repro,
2007-06-26,0.07, 2.21, -8.89, 2.05, 1.58, 7.08, repro,
2007-06-27,1.06, 0.96, -1.82, 2.04, 1.59, 7.09, repro,
2007-06-28,0.14, 0.81, -0.96, 2.02, 1.57, 7.02, repro,
2007-06-29,1.11, -0.02, -8.86, 2.04, 1.57, 7.05, repro,
2007-06-30,0.03, 1.19, 2.45, 2.04, 1.58, 7.06, repro,
2007-07-01,0.53, 0.80, 0.56, 2.05, 1.58, 7.08, repro,
2007-07-02,-0.19, 0.13, 2.44, 2.04, 1.59, 7.13, repro,
2007-07-03,0.16, 1.13, -4.28, 2.03, 1.59, 7.10, repro,
2007-07-04,0.03, 1.31, 3.04, 2.03, 1.57, 7.02, repro,
2007-07-05,-0.90, 2.12, 1.74, 2.04, 1.58, 7.09, repro,
2007-07-06,0.16, 1.51, 1.35, 2.05, 1.59, 7.09, repro,
2007-07-07,-0.82, 2.11, -0.99, 2.04, 1.59, 7.07, repro,
2007-07-08,-0.88, 2.89, 2.48, 2.04, 1.59, 7.08, repro,
2007-07-09,1.11, 0.98, 3.07, 2.04, 1.58, 7.07, repro,
2007-07-10,-1.23, 3.02, 3.21, 2.05, 1.63, 7.20, repro,
2007-07-11,-0.46, 1.97, -3.44, 2.04, 1.59, 7.03, repro,
2007-07-12,0.88, 3.20, -3.67, 2.08, 1.66, 7.28, repro,
2007-07-13,-0.02, 0.71, -1.11, 2.09, 1.65, 7.28, repro,
2007-07-14,0.73, 1.54, -1.74, 2.06, 1.63, 7.17, repro,
2007-07-15,0.14, 0.58, 1.86, 2.06, 1.64, 7.22, repro,
2007-07-16,-0.07, 0.96, 4.20, 2.04, 1.58, 7.02, repro,
2007-07-17,-0.44, 2.13, 6.29, 2.04, 1.60, 7.09, repro,
2007-07-18,1.25, -0.12, 0.46, 2.03, 1.59, 7.05, repro,
2007-07-19,-0.79, 1.41, 3.78, 2.10, 1.68, 7.44, repro,
2007-07-20,0.51, 0.55, 6.31, 2.08, 1.65, 7.29, repro,
2007-07-21,-0.12, 1.04, 6.52, 2.09, 1.65, 7.26, repro,
2007-07-22,0.83, 1.07, 1.94, 2.12, 1.67, 7.41, repro,
2007-07-23,0.24, 1.45, 2.97, 2.08, 1.64, 7.26, repro,
2007-07-24,-0.37, 2.46, 6.16, 2.08, 1.64, 7.23, repro,
2007-07-25,0.77, -2.71, 12.60, 2.13, 1.70, 7.44, repro,
2007-07-26,1.20, -1.63, 6.27, 2.06, 1.61, 7.20, repro,
2007-07-27,-2.62, 1.75, 1.32, 2.12, 1.67, 7.44, repro,
2007-07-28,-0.72, 2.13, 6.98, 2.07, 1.66, 7.28, repro,
2007-07-29,0.13, 0.28, 7.73, 2.08, 1.67, 7.31, repro,
2007-07-30,1.02, 1.11, 6.63, 2.04, 1.59, 7.07, repro,
2007-07-31,-1.19, 2.14, 7.53, 2.12, 1.61, 7.35, repro,
2007-08-01,1.25, 0.76, 13.33, 2.05, 1.59, 7.14, repro,
2007-08-02,0.20, 2.76, 3.67, 2.03, 1.59, 7.05, repro,
2007-08-03,1.47, 1.08, 5.53, 2.10, 1.70, 7.51, repro,
2007-08-04,-0.74, 1.70, 13.07, 2.03, 1.58, 6.99, repro,
2007-08-05,0.57, 1.88, 12.51, 2.04, 1.58, 7.01, repro,
2007-08-06,0.39, 0.55, 12.21, 2.07, 1.63, 7.25, repro,
2007-08-07,1.19, 0.20, 5.89, 2.07, 1.62, 7.23, repro,
2007-08-08,0.42, 1.59, 8.21, 2.02, 1.59, 7.04, repro,
2007-08-09,-0.29, 1.71, 8.46, 2.03, 1.58, 7.01, repro,
2007-08-10,-0.05, 0.21, 7.96, 2.02, 1.57, 6.95, repro,
2007-08-11,0.12, 1.05, 7.91, 2.04, 1.57, 7.02, repro,
2007-08-12,0.94, 1.48, 9.01, 2.03, 1.58, 7.04, repro,
2007-08-13,-0.73, 0.61, 4.52, 2.02, 1.57, 6.97, repro,
2007-08-14,1.33, 0.23, 4.40, 2.15, 1.69, 7.45, repro,
2007-08-15,1.73, 1.01, 5.61, 2.15, 1.69, 7.45, repro,
2007-08-16,0.05, 0.79, 11.77, 2.12, 1.64, 7.36, repro,
2007-08-17,0.26, 0.72, 10.29, 2.13, 1.63, 7.35, repro,
2007-08-18,1.02, 1.15, 8.82, 2.16, 1.69, 7.68, repro,
2007-08-19,0.63, 1.17, 5.77, 2.21, 1.76, 7.88, repro,
2007-08-20,3.47, -3.51, -1.12, 2.11, 1.63, 7.31, repro,
2007-08-21,0.70, -0.15, 3.62, 2.10, 1.63, 7.31, repro,
2007-08-22,2.19, 0.44, 4.41, 2.22, 1.75, 7.83, repro,
2007-08-23,1.71, 0.35, 11.42, 2.08, 1.58, 7.10, repro,
2007-08-24,-0.09, 1.50, 10.21, 2.20, 1.67, 7.49, repro,
2007-08-25,0.94, 0.56, 5.89, 2.12, 1.66, 7.34, repro,
2007-08-26,1.44, 0.33, 15.25, 2.17, 1.71, 7.59, repro,
2007-08-27,1.25, 3.09, 1.88, 2.18, 1.71, 7.60, repro,
2007-08-28,2.03, -0.12, -0.69, 2.14, 1.67, 7.44, repro,
2007-08-29,0.37, 1.92, 2.90, 2.13, 1.66, 7.37, repro,
2007-08-30,1.03, -0.14, 4.74, 2.15, 1.68, 7.45, repro,
2007-08-31,-1.03, 1.12, 3.44, 2.16, 1.69, 7.55, repro,
2007-09-01,1.47, 0.61, -2.38, 2.38, 2.04, 8.72, repro,
2007-09-02,-0.79, -0.38, 10.82, 2.14, 1.67, 7.38, repro,
2007-09-03,0.59, 0.15, 2.38, 2.17, 1.71, 7.55, repro,
2007-09-04,-0.05, 0.41, 10.25, 2.16, 1.67, 7.46, repro,
2007-09-05,-0.16, -0.50, 12.05, 2.15, 1.67, 7.45, repro,
2007-09-06,1.54, 0.31, 5.97, 2.12, 1.65, 7.32, repro,
2007-09-07,-0.22, -0.50, 8.33, 2.13, 1.66, 7.32, repro,
2007-09-08,0.92, -0.51, 6.84, 2.26, 1.81, 7.94, repro,
2007-09-09,0.93, 0.41, 4.56, 2.23, 1.77, 7.81, repro,
2007-09-10,-0.37, 1.06, 1.20, 2.15, 1.67, 7.39, repro,
2007-09-11,0.80, 0.80, 2.93, 2.19, 1.71, 7.59, repro,
2007-09-12,0.34, 0.96, 4.60, 2.17, 1.70, 7.51, repro,
2007-09-13,0.45, -0.14, 7.87, 2.26, 1.71, 7.67, repro,
2007-09-14,1.35, -0.20, 6.65, 2.19, 1.71, 7.60, repro,
2007-09-15,0.87, -0.31, 9.56, 2.21, 1.68, 7.56, repro,
2007-09-16,1.36, -0.48, 4.61, 2.16, 1.65, 7.38, repro,
2007-09-17,1.86, 0.21, 14.33, 2.23, 1.75, 7.74, repro,
2007-09-18,1.54, 0.60, 3.75, 2.14, 1.69, 7.45, repro,
2007-09-19,0.46, 1.61, 12.35, 2.05, 1.60, 7.11, repro,
2007-09-20,0.16, 1.15, 15.53, 2.09, 1.62, 7.11, repro,
2007-09-21,-0.05, 0.26, 11.83, 2.15, 1.66, 7.44, repro,
2007-09-22,1.47, 0.05, 14.62, 2.10, 1.61, 7.20, repro,
2007-09-23,1.93, -2.40, 0.82, 2.14, 1.64, 7.32, repro,
2007-09-24,0.71, 1.23, 1.89, 2.23, 1.72, 7.69, repro,
2007-09-25,-0.48, 0.24, 4.89, 2.15, 1.68, 7.57, repro,
2007-09-26,0.47, 0.03, 4.54, 2.26, 1.71, 7.77, repro,
2007-09-27,-0.37, 0.53, 6.84, 2.11, 1.62, 7.24, repro,
2007-09-28,-0.08, -1.14, 3.44, 2.19, 1.74, 7.59, repro,
2007-09-29,-0.34, 1.97, 11.30, 2.15, 1.69, 7.46, repro,
2007-09-30,0.14, -0.29, 8.54, 2.12, 1.69, 7.43, repro,
2007-10-01,0.32, 0.85, 5.11, 2.12, 1.68, 7.40, repro,
2007-10-02,0.65, -0.91, 8.98, 2.16, 1.73, 7.65, repro,
2007-10-03,5.51, -2.39, 13.79, 2.12, 1.66, 7.34, repro,
2007-10-04,1.01, 0.40, -0.05, 2.13, 1.67, 7.45, repro,
2007-10-05,-0.52, -2.05, 8.74, 2.16, 1.74, 7.70, repro,
2007-10-06,-1.22, 1.05, 11.19, 2.18, 1.71, 7.61, repro,
2007-10-07,1.19, 0.80, 4.48, 2.17, 1.70, 7.56, repro,
2007-10-08,-0.48, 0.09, 6.38, 2.35, 1.79, 8.20, repro,
2007-10-09,-0.41, 2.21, 5.86, 2.38, 1.92, 8.44, repro,
2007-10-10,0.11, 0.24, 1.17, 2.29, 1.73, 7.88, repro,
2007-10-11,0.32, 1.11, 8.01, 2.13, 1.70, 7.50, repro,
2007-10-12,1.15, 0.20, 7.17, 2.27, 1.87, 8.24, repro,
2007-10-13,0.06, 0.18, 12.12, 2.06, 1.63, 7.22, repro,
2007-10-14,-0.23, 0.54, 9.37, 2.05, 1.63, 7.18, repro,
2007-10-15,-0.16, 0.04, 6.58, 2.08, 1.64, 7.27, repro,
2007-10-16,0.95, -1.26, 9.89, 2.08, 1.64, 7.29, repro,
2007-10-17,1.20, 3.32, 10.25, 2.14, 1.71, 7.56, repro,
2007-10-18,-0.10, -2.37, 10.11, 2.11, 1.68, 7.41, repro,
2007-10-19,8.25, 6.67, 5.19, 2.13, 1.69, 7.46, repro,
2007-10-20,-0.63, 0.68, 10.82, 2.12, 1.67, 7.42, repro,
2007-10-21,1.01, 0.32, -2.93, 2.23, 1.77, 7.79, repro,
2007-10-22,-0.42, 0.67, -1.29, 2.08, 1.63, 7.26, repro,
2007-10-23,-0.72, 1.57, -2.85, 2.16, 1.73, 7.64, repro,
2007-10-24,-0.54, 0.67, -2.74, 2.15, 1.73, 7.59, repro,
2007-10-25,-1.44, -0.85, -0.85, 2.12, 1.67, 7.42, repro,
2007-10-26,-0.02, 1.56, 2.06, 2.10, 1.67, 7.34, repro,
2007-10-27,0.49, 0.63, -2.13, 2.12, 1.68, 7.47, repro,
2007-10-28,0.28, 0.80, -2.33, 2.08, 1.63, 7.28, repro,
2007-10-29,-1.20, 0.81, 2.23, 2.05, 1.62, 7.20, repro,
2007-10-30,-1.62, -2.49, -4.49, 2.09, 1.63, 7.26, repro,
2007-10-31,-0.66, 0.88, 0.89, 2.07, 1.63, 7.22, repro,
2007-11-01,0.76, 0.36, -2.38, 2.05, 1.60, 7.10, repro,
2007-11-02,0.32, 0.94, 0.64, 2.05, 1.60, 7.13, repro,
2007-11-03,-0.91, 0.88, -3.19, 2.04, 1.59, 7.06, repro,
2007-11-04,-0.53, 0.59, 1.53, 2.03, 1.58, 7.00, repro,
2007-11-05,-0.24, 1.00, -4.45, 2.06, 1.60, 7.06, repro,
2007-11-06,-0.34, 0.87, -3.39, 2.04, 1.61, 7.11, repro,
2007-11-07,0.53, 0.55, -3.58, 2.04, 1.61, 7.12, repro,
2007-11-08,0.01, -0.32, -2.72, 2.09, 1.63, 7.23, repro,
2007-11-09,0.24, -0.26, -2.87, 2.08, 1.63, 7.19, repro,
2007-11-10,-0.10, -1.61, -0.73, 2.05, 1.59, 7.04, repro,
2007-11-11,-1.14, -0.79, 1.17, 2.03, 1.59, 7.04, repro,
2007-11-12,-0.16, 0.33, -0.81, 2.05, 1.60, 7.14, repro,
2007-11-13,1.15, -6.59, 6.03, 2.05, 1.60, 7.16, repro,
2007-11-14,-0.11, -0.24, -5.69, 2.07, 1.62, 7.22, repro,
2007-11-15,0.42, -1.86, -5.98, 2.06, 1.61, 7.11, repro,
2007-11-16,1.38, -2.58, 1.13, 2.07, 1.61, 7.17, repro,
2007-11-17,3.95, -1.18, -5.09, 2.06, 1.62, 7.24, repro,
2007-11-18,2.19, -0.97, 1.77, 2.04, 1.60, 7.11, repro,
2007-11-19,1.44, 0.35, 0.80, 2.04, 1.59, 7.07, repro,
2007-11-20,1.62, -1.29, -0.06, 2.12, 1.69, 7.29, repro,
2007-11-21,0.20, 0.11, -4.82, 2.11, 1.71, 7.42, repro,
2007-11-22,1.24, 0.01, -6.88, 2.09, 1.65, 7.22, repro,
2007-11-23,0.80, 0.32, -7.55, 2.14, 1.76, 7.52, repro,
2007-11-24,0.72, -0.04, -0.11, 2.12, 1.71, 7.37, repro,
2007-11-25,0.68, 0.15, 1.64, 2.20, 1.77, 7.55, repro,
2007-11-26,0.94, 0.49, -3.78, 2.17, 1.71, 7.49, repro,
2007-11-27,2.44, -2.46, 0.81, 2.12, 1.71, 7.38, repro,
2007-11-28,0.64, -0.69, -5.46, 2.15, 1.74, 7.53, repro,
2007-11-29,1.38, 1.12, -1.53, 2.12, 1.67, 7.40, repro,
2007-11-30,0.49, -0.10, 0.51, 2.23, 1.76, 7.68, repro,
2007-12-01,1.21, -1.28, 3.47, 2.24, 1.79, 7.82, repro,
2007-12-02,1.48, -3.84, -2.49, 2.22, 1.80, 7.85, repro,
2007-12-03,2.82, -0.14, -0.03, 2.33, 1.88, 8.39, repro,
2007-12-04,2.45, 2.69, -7.78, 2.23, 1.81, 7.89, repro,
2007-12-05,0.27, -1.94, -2.08, 2.41, 2.05, 8.70, repro,
2007-12-06,2.74, -2.79, -0.12, 2.33, 1.89, 8.33, repro,
2007-12-07,0.24, -0.65, 2.85, 2.40, 1.98, 8.49, repro,
2007-12-08,-0.13, 0.91, 5.88, 2.17, 1.72, 7.57, repro,
2007-12-09,0.69, 0.59, -0.52, 2.54, 2.22, 9.22, repro,
2007-12-10,0.96, 0.52, -2.42, 2.17, 1.77, 7.56, repro,
2007-12-11,0.62, -0.93, -5.16, 2.22, 1.79, 7.85, repro,
2007-12-12,2.31, -1.47, -10.67, 2.27, 1.76, 7.84, repro,
2007-12-13,1.19, -0.02, -10.30, 2.21, 1.74, 7.56, repro,
2007-12-14,0.15, 0.33, -2.79, 2.11, 1.64, 7.31, repro,
2007-12-15,0.74, -2.86, 6.74, 2.11, 1.64, 7.32, repro,
2007-12-16,0.88, -0.84, -4.17, 2.16, 1.69, 7.42, repro,
2007-12-17,1.94, 0.76, 3.17, 2.16, 1.68, 7.41, repro,
2007-12-18,1.87, 0.01, 7.26, 2.13, 1.69, 7.43, repro,
2007-12-19,4.20, -0.50, 2.02, 2.18, 1.69, 7.55, repro,
2007-12-20,1.89, -0.38, 5.18, 2.09, 1.62, 7.22, repro,
2007-12-21,0.51, -0.88, 1.95, 2.23, 1.74, 7.69, repro,
2007-12-22,0.81, -0.29, -10.38, 2.23, 1.73, 7.80, repro,
2007-12-23,2.87, -3.09, -16.26, 2.18, 1.70, 7.51, repro,
2007-12-24,2.33, -3.28, -8.07, 2.14, 1.65, 7.33, repro,
2007-12-25,1.95, 0.47, -1.02, 2.19, 1.72, 7.49, repro,
2007-12-26,1.02, -0.67, 6.61, 2.13, 1.65, 7.33, repro,
2007-12-27,1.00, -0.10, 3.22, 2.18, 1.69, 7.55, repro,
2007-12-28,2.56, -6.34, -11.35, 2.17, 1.69, 7.54, repro,
2007-12-29,1.04, -4.17, -2.90, 2.13, 1.64, 7.31, repro,
2007-12-30,1.66, 5.92, -22.58, 2.19, 1.76, 7.62, repro,
2007-12-31,0.56, 0.99, -4.70, 2.11, 1.61, 7.20, repro,
2008-01-01,1.08, 0.57, -10.45, 2.12, 1.60, 7.23, repro,
2008-01-02,0.17, 0.63, -5.24, 2.11, 1.60, 7.19, repro,
2008-01-03,-0.12, 0.80, 0.37, 2.13, 1.64, 7.38, repro,
2008-01-04,0.89, 1.30, 8.48, 2.05, 1.56, 7.02, repro,
2008-01-05,1.09, -1.33, 7.89, 2.11, 1.61, 7.25, repro,
2008-01-06,3.99, -0.76, 2.18, 2.15, 1.67, 7.50, repro,
2008-01-07,0.69, -2.10, 5.44, 2.07, 1.57, 7.08, repro,
2008-01-08,0.92, 0.02, 2.90, 2.13, 1.59, 7.29, repro,
2008-01-09,-0.93, -1.79, -1.71, 2.13, 1.59, 7.28, repro,
2008-01-10,2.52, -5.87, -3.81, 2.11, 1.62, 7.24, repro,
2008-01-11,0.12, 0.19, -2.65, 2.10, 1.63, 7.22, repro,
2008-01-12,1.43, -3.65, -9.69, 2.05, 1.57, 7.02, repro,
2008-01-13,0.04, 1.16, -6.72, 2.08, 1.60, 7.18, repro,
2008-01-14,-0.33, -0.29, -2.25, 2.07, 1.60, 7.17, repro,
2008-01-15,0.03, -1.71, -5.66, 2.06, 1.58, 7.08, repro,
2008-01-16,-0.05, -0.11, -4.95, 2.11, 1.60, 7.23, repro,
2008-01-17,0.57, 0.49, -2.58, 2.10, 1.59, 7.16, repro,
2008-01-18,-0.02, -0.06, -2.21, 2.07, 1.63, 7.24, repro,
2008-01-19,-0.31, 0.72, -6.44, 2.05, 1.59, 7.13, repro,
2008-01-20,1.53, 0.10, -4.18, 2.05, 1.59, 7.12, repro,
2008-01-21,-0.51, 0.32, 0.26, 2.05, 1.58, 7.05, repro,
2008-01-22,-0.32, 0.46, -3.35, 2.04, 1.58, 7.03, repro,
2008-01-23,0.06, 0.80, -3.66, 2.05, 1.59, 7.06, repro,
2008-01-24,0.06, 0.78, 2.79, 2.05, 1.60, 7.15, repro,
2008-01-25,0.65, 1.27, -0.50, 2.06, 1.59, 7.14, repro,
2008-01-26,1.00, 0.89, -1.66, 2.04, 1.58, 7.06, repro,
2008-01-27,0.57, 1.37, 2.39, 2.05, 1.59, 7.07, repro,
2008-01-28,2.06, -0.89, 4.66, 2.06, 1.59, 7.09, repro,
2008-01-29,2.39, -3.92, -1.41, 2.17, 1.70, 7.44, repro,
2008-01-30,2.12, -3.00, -2.84, 2.16, 1.67, 7.42, repro,
2008-01-31,2.47, 1.18, -5.52, 2.04, 1.58, 7.10, repro,
2008-02-01,0.90, -0.03, -10.59, 2.06, 1.58, 7.08, repro,
2008-02-02,1.22, -2.96, -9.26, 2.05, 1.59, 7.11, repro,
2008-02-03,-0.16, 1.58, 1.77, 2.04, 1.58, 7.07, repro,
2008-02-04,0.51, 1.35, -1.62, 2.04, 1.57, 7.03, repro,
2008-02-05,-0.03, 0.30, -1.85, 2.07, 1.64, 7.26, repro,
2008-02-06,1.49, -0.25, -7.87, 2.09, 1.64, 7.31, repro,
2008-02-07,2.24, 0.32, -4.10, 2.07, 1.61, 7.21, repro,
2008-02-08,-0.50, -1.70, -4.62, 2.06, 1.59, 7.13, repro,
2008-02-09,-1.07, 2.69, 0.45, 2.04, 1.58, 7.08, repro,
2008-02-10,-0.74, -1.82, -6.96, 2.03, 1.57, 7.03, repro,
2008-02-11,-0.46, 0.01, -1.39, 2.04, 1.58, 7.08, repro,
2008-02-12,0.76, 1.13, -6.03, 2.05, 1.58, 7.06, repro,
2008-02-13,1.84, -1.02, -0.53, 2.04, 1.58, 7.05, repro,
2008-02-14,1.76, -0.41, -1.94, 2.04, 1.59, 7.06, repro,
2008-02-15,0.53, 0.69, -3.15, 2.09, 1.63, 7.23, repro,
2008-02-16,-0.30, -0.23, -0.47, 2.04, 1.60, 7.11, repro,
2008-02-17,-0.18, 1.40, -3.07, 2.05, 1.59, 7.06, repro,
2008-02-18,-0.38, 0.63, -1.67, 2.06, 1.59, 7.11, repro,
2008-02-19,0.05, 0.72, 0.14, 2.05, 1.59, 7.07, repro,
2008-02-20,-0.62, -0.09, 1.26, 2.04, 1.58, 7.04, repro,
2008-02-21,-0.60, 0.50, 6.90, 2.05, 1.60, 7.14, repro,
2008-02-22,1.02, -1.21, -0.38, 2.05, 1.59, 7.06, repro,
2008-02-23,-0.29, 1.30, 2.02, 2.09, 1.63, 7.25, repro,
2008-02-24,0.93, 2.61, 0.53, 2.05, 1.59, 7.12, repro,
2008-02-25,1.28, -2.83, -1.67, 2.06, 1.59, 7.11, repro,
2008-02-26,0.37, 0.11, -9.00, 2.04, 1.57, 7.01, repro,
2008-02-27,0.97, 0.81, -9.26, 2.11, 1.62, 7.30, repro,
2008-02-28,0.60, -0.15, -6.48, 2.12, 1.67, 7.43, repro,
2008-02-29,0.98, 0.21, -8.40, 2.10, 1.63, 7.32, repro,
2008-03-01,-0.79, -0.12, -3.91, 2.06, 1.59, 7.16, repro,
2008-03-02,1.78, -1.23, -4.40, 2.13, 1.67, 7.49, repro,
2008-03-03,-0.49, -0.73, -3.25, 2.05, 1.59, 7.10, repro,
2008-03-04,3.34, -3.13, -15.13, 2.05, 1.59, 7.10, repro,
2008-03-05,0.36, 0.50, -2.94, 2.13, 1.69, 7.44, repro,
2008-03-06,-0.08, 0.10, -6.27, 2.08, 1.63, 7.30, repro,
2008-03-07,1.20, 0.18, -5.60, 2.03, 1.57, 6.98, repro,
2008-03-08,-0.84, 0.01, 1.23, 2.09, 1.64, 7.36, repro,
2008-03-09,-0.20, 0.15, -1.05, 2.09, 1.62, 7.26, repro,
2008-03-10,0.60, 0.22, -5.97, 2.05, 1.58, 7.06, repro,
2008-03-11,1.37, -1.97, -5.95, 2.06, 1.58, 7.12, repro,
2008-03-12,0.15, -3.01, -4.20, 2.07, 1.62, 7.28, repro,
2008-03-13,-1.87, -0.84, 10.16, 2.09, 1.63, 7.33, repro,
2008-03-14,1.10, -2.57, 1.88, 2.10, 1.63, 7.36, repro,
2008-03-15,1.56, -1.34, -7.59, 2.06, 1.58, 7.06, repro,
2008-03-16,-0.61, -0.56, 0.29, 2.12, 1.66, 7.49, repro,
2008-03-17,0.61, -0.52, -2.33, 2.18, 1.75, 7.81, repro,
2008-03-18,1.06, 0.76, -4.90, 2.09, 1.66, 7.33, repro,
2008-03-19,1.11, -3.74, -4.68, 2.14, 1.67, 7.51, repro,
2008-03-20,1.91, -0.39, -8.90, 2.10, 1.62, 7.26, repro,
2008-03-21,1.59, -0.21, -14.25, 2.12, 1.65, 7.42, repro,
2008-03-22,0.31, -0.14, -8.81, 2.11, 1.66, 7.41, repro,
2008-03-23,0.24, -1.24, -7.39, 2.11, 1.67, 7.35, repro,
2008-03-24,1.68, 0.32, -5.24, 2.08, 1.61, 7.17, repro,
2008-03-25,4.78, 2.67, -3.63, 2.16, 1.68, 7.47, repro,
2008-03-26,-1.79, 3.06, 5.86, 2.14, 1.66, 7.36, repro,
2008-03-27,1.14, 3.50, -10.31, 2.13, 1.67, 7.45, repro,
2008-03-28,0.96, -1.19, 1.27, 2.09, 1.62, 7.19, repro,
2008-03-29,0.51, 0.95, 3.15, 2.08, 1.60, 7.17, repro,
2008-03-30,0.97, -1.82, -2.40, 2.07, 1.58, 7.11, repro,
2008-03-31,1.29, -1.08, -7.08, 2.10, 1.60, 7.23, repro,
2008-04-01,0.81, 0.14, 1.67, 2.08, 1.59, 7.18, repro,
2008-04-02,0.32, -0.52, -4.27, 2.11, 1.59, 7.24, repro,
2008-04-03,0.69, 0.22, 2.17, 2.06, 1.58, 7.11, repro,
2008-04-04,2.01, -1.13, -5.21, 2.09, 1.63, 7.23, repro,
2008-04-05,0.71, -3.81, 3.46, 2.09, 1.59, 7.23, repro,
2008-04-06,2.50, 0.87, -3.81, 2.09, 1.58, 7.16, repro,
2008-04-07,1.71, -4.41, -3.12, 2.07, 1.58, 7.13, repro,
2008-04-08,0.37, -1.51, -0.32, 2.06, 1.58, 7.13, repro,
2008-04-09,1.27, -0.92, -12.10, 2.10, 1.58, 7.20, repro,
2008-04-10,4.98, -4.48, -2.85, 2.07, 1.57, 7.08, repro,
2008-04-11,0.10, -0.46, -4.64, 2.08, 1.58, 7.16, repro,
2008-04-12,0.20, -0.08, -7.29, 2.08, 1.58, 7.17, repro,
2008-04-13,0.52, -0.21, -5.42, 2.10, 1.65, 7.32, repro,
2008-04-14,1.48, -1.49, -0.22, 2.08, 1.59, 7.23, repro,
2008-04-15,1.39, -3.78, -3.43, 2.12, 1.63, 7.28, repro,
2008-04-16,-0.28, 0.20, 1.34, 2.11, 1.64, 7.29, repro,
2008-04-17,0.67, -1.07, -2.44, 2.07, 1.58, 7.14, repro,
2008-04-18,2.62, -0.59, -5.53, 2.07, 1.58, 7.16, repro,
2008-04-19,2.39, -1.83, 1.71, 2.08, 1.59, 7.22, repro,
2008-04-20,-0.18, -0.62, -12.83, 2.13, 1.60, 7.31, repro,
2008-04-21,0.92, 0.17, -1.36, 2.09, 1.58, 7.18, repro,
2008-04-22,0.00, -1.18, 0.94, 2.09, 1.59, 7.19, repro,
2008-04-23,5.00, 1.43, -6.82, 2.13, 1.63, 7.35, repro,
2008-04-24,-0.66, -3.48, -2.31, 2.10, 1.62, 7.33, repro,
2008-04-25,1.36, -2.51, -12.83, 2.11, 1.59, 7.26, repro,
2008-04-26,2.91, -4.36, -8.29, 2.21, 1.61, 7.42, repro,
2008-04-27,0.18, 0.10, -7.11, 2.19, 1.61, 7.38, repro,
2008-04-28,0.40, -1.86, -5.77, 2.16, 1.60, 7.28, repro,
2008-04-29,2.13, 1.45, 1.44, 2.22, 1.61, 7.42, repro,
2008-04-30,3.44, -5.35, -4.19, 2.15, 1.61, 7.35, repro,
2008-05-01,3.01, -2.78, -8.15, 2.19, 1.62, 7.43, repro,
2008-05-02,0.37, -0.22, 3.29, 2.18, 1.65, 7.47, repro,
2008-05-03,-0.26, -1.33, 1.44, 2.16, 1.61, 7.33, repro,
2008-05-04,1.06, -0.08, 2.80, 2.07, 1.55, 7.04, repro,
2008-05-05,-0.18, -0.17, 1.58, 2.13, 1.60, 7.23, repro,
2008-05-06,1.23, -2.19, -5.52, 2.14, 1.61, 7.31, repro,
2008-05-07,0.52, -2.34, -12.73, 2.15, 1.59, 7.25, repro,
2008-05-08,0.49, -0.43, 2.39, 2.18, 1.65, 7.33, repro,
2008-05-09,2.23, -2.54, 0.59, 2.14, 1.60, 7.26, repro,
2008-05-10,0.21, 1.25, 0.98, 2.09, 1.56, 7.07, repro,
2008-05-11,2.31, -1.17, 2.30, 2.14, 1.59, 7.25, repro,
2008-05-12,1.21, -0.59, 4.57, 2.13, 1.57, 7.18, repro,
2008-05-13,0.84, 0.29, 2.36, 2.11, 1.55, 7.07, repro,
2008-05-14,1.55, 1.58, -2.14, 2.11, 1.56, 7.09, repro,
2008-05-15,-1.04, 0.28, -4.21, 2.11, 1.57, 7.16, repro,
2008-05-16,0.06, -0.77, -4.62, 2.09, 1.55, 7.07, repro,
2008-05-17,0.91, 0.81, 5.48, 2.15, 1.59, 7.25, repro,
2008-05-18,-0.01, -0.93, 0.26, 2.16, 1.59, 7.27, repro,
2008-05-19,0.85, 1.12, -4.74, 2.09, 1.56, 7.10, repro,
2008-05-20,0.45, 0.47, 3.97, 2.11, 1.58, 7.25, repro,
2008-05-21,-2.57, -0.06, 13.89, 2.12, 1.62, 7.36, repro,
2008-05-22,1.41, -1.52, 1.77, 2.10, 1.60, 7.24, repro,
2008-05-23,0.79, -0.00, 7.35, 2.11, 1.59, 7.24, repro,
2008-05-24,-0.24, 0.17, -2.25, 2.12, 1.61, 7.30, repro,
2008-05-25,-0.23, 0.06, 3.67, 2.10, 1.56, 7.17, repro,
2008-05-26,-0.81, 0.82, 3.21, 2.14, 1.65, 7.42, repro,
2008-05-27,-1.67, 0.58, -1.78, 2.09, 1.57, 7.17, repro,
2008-05-28,0.27, -1.55, -2.98, 2.09, 1.56, 7.14, repro,
2008-05-29,1.43, -2.10, -5.35, 2.14, 1.60, 7.25, repro,
2008-05-30,0.24, 1.01, 1.11, 2.10, 1.57, 7.19, repro,
2008-05-31,0.18, 0.62, 2.01, 2.09, 1.58, 7.22, repro,
2008-06-01,0.76, -1.62, 1.28, 2.10, 1.58, 7.22, repro,
2008-06-02,0.73, -0.74, -3.17, 2.08, 1.56, 7.13, repro,
2008-06-03,0.62, 3.57, -1.29, 2.17, 1.63, 7.43, repro,
2008-06-04,2.10, -3.29, -1.11, 2.09, 1.58, 7.21, repro,
2008-06-05,-0.05, -0.21, 5.79, 2.09, 1.57, 7.16, repro,
2008-06-06,1.70, -1.94, 5.91, 2.12, 1.62, 7.31, repro,
2008-06-07,-0.02, 0.56, 5.41, 2.15, 1.66, 7.41, repro,
2008-06-08,-0.01, 0.04, 2.60, 2.13, 1.62, 7.25, repro,
2008-06-09,0.11, -2.39, 2.09, 2.14, 1.61, 7.29, repro,
2008-06-10,6.73, 2.25, -13.15, 2.12, 1.60, 7.35, repro,